Regional Weather Roundup
Issued by NWS

Home | Current Version | Previous Version | Graphics & Text | Print | Product List | Glossary On
Versions: 1 2 3 4 5 6 7 8 9 10 11 12 13 14 15 16 17 18 19 20 21 22 23 24 25 26 27 28 29 30 31 32 33 34 35 36 37 38 39 40 41 42 43 44 45 46 47 48 49 50
000
ASUS43 KDTX 171510
RWRMI
MICHIGAN HOURLY REGIONAL WEATHER ROUNDUP
NATIONAL WEATHER SERVICE DETROIT/PONTIAC MI
1100 AM EDT WED SEP 17 2014

NOTE: "FAIR" INDICATES FEW OR NO CLOUDS BELOW 12,000 FEET WITH NO
SIGNIFICANT WEATHER AND/OR OBSTRUCTION TO VISIBILITY.

MIZ047>049-052>055-059>063-066>070-074>076-081>083-171600-
SOUTHEAST LOWER MICHIGAN

CITY           SKY/WX    TMP DP  RH WIND       PRES   REMARKS
ADRIAN         SUNNY     57  45  64 W6        30.06F
ALMA           SUNNY     58  50  74 SW6       30.04F
ANN ARBOR      SUNNY     58  42  55 W3        30.05F
BAD AXE        SUNNY     59  52  77 W9        30.02F
DETROIT CITY   SUNNY     59  41  51 W6        30.05F
DETROIT        MOSUNNY   59  44  57 SW8       30.05F
FLINT          SUNNY     59  43  55 SW7       30.05F
GROSSE ILE     SUNNY     57  43  58 W6        30.04F
HILLSDALE      SUNNY     58  44  60 CALM      30.05F
HOWELL         SUNNY     56  44  63 SW7       30.04F

CITY           SKY/WX    TMP DP  RH WIND       PRES   REMARKS
JACKSON        SUNNY     58  44  60 VRB3      30.05F
LAMBERTVILLE   SUNNY     59  46  63 W5        30.06F
LANSING        SUNNY     59  45  59 SW7       30.05F
LAPEER         NOT AVBL
MASON          SUNNY     57  44  59 CALM      30.05F
MONROE         SUNNY     57  46  67 W8        30.04F
MT. CLEMENS    SUNNY     60  43  52 SW5       30.03F
PONTIAC        MOSUNNY   57  43  59 W7        30.04F
PORT HOPE        N/A     59  49  69 VRB6      29.99S
PORT HURON     SUNNY     59  50  72 SW5       30.03F
TRI CITIES     SUNNY     59  50  72 SW8       30.04F
YPSILANTI      SUNNY     61  43  51 SW3       30.05F
$$
MIZ043>046-050>051-056>058-064>065-071>073-077>080-171600-
SOUTHWEST LOWER MICHIGAN

CITY           SKY/WX    TMP DP  RH WIND       PRES   REMARKS
BATTLE CREEK   SUNNY     58  46  64 SW6       30.05F
BENTON HARBOR  SUNNY     58  48  69 S6        30.04F
BIG RAPIDS     MOSUNNY   61  54  77 W12       30.01F
COLDWATER      SUNNY     60  47  63 W5        30.05F
HOLLAND        CLOUDY    61  49  64 S8        30.04F
GRAND RAPIDS   MOSUNNY   61  50  67 SW5       30.04F
KALAMAZOO      SUNNY     59  46  62 S6        30.05F
MARSHALL       SUNNY     58  45  62 W3        30.04F
MUSKEGON       PTSUNNY   61  50  67 SW6       30.03F
$$
MIZ016>042-171600-
NORTHERN LOWER MICHIGAN

CITY           SKY/WX    TMP DP  RH WIND       PRES   REMARKS
ALPENA         PTSUNNY   59  48  67 SW8       29.96F
BEAVER ISLAND  PTSUNNY   63  51  64 W18       29.96S
BELLAIRE       MOSUNNY   61  51  70 S5        29.99S
CADILLAC       SUNNY     60  50  70 SW8       30.00F
CHARLEVOIX     PTSUNNY   62  53  72 W13       30.00S
FRANKFORT      MOSUNNY   61  51  68 W5        30.00F
GAYLORD        MOSUNNY   59  45  59 W13       29.98F
GRAYLING       MOSUNNY   60  48  64 SW7       29.99F
HARBOR SPRINGS PTSUNNY   61  51  70 W12G18    29.96S
HOUGHTON LAKE  SUNNY     58  49  72 W5        30.00F
MANISTEE       MOSUNNY   59  46  63 W9        30.02S
OSCODA         MOSUNNY   63  49  59 W6        29.97F
TRAVERSE CITY  PTSUNNY   61  49  64 SW8       29.98F
$$
MIZ007>008-015-171600-
EASTERN UPPER MICHIGAN

CITY           SKY/WX    TMP DP  RH WIND       PRES   REMARKS
KINROSS        CLOUDY    52  50  93 CALM      29.93F
MACKINAC ISLAN CLOUDY    59  52  77 W14G20    29.94S
NEWBERRY       CLOUDY    54  48  79 SW9       29.94S
S. S. MARIE    CLOUDY    49  46  90 CALM      29.93F
$$
MIZ004>006-011>014-085-171600-
CENTRAL UPPER MICHIGAN

CITY           SKY/WX    TMP DP  RH WIND       PRES   REMARKS
MANISTIQUE     CLOUDY    55  47  72 SW6       29.95F
ESCANABA       MOSUNNY   61  45  55 W8        29.96F
MENOMINEE      MOSUNNY   57  46  67 W3        29.97S
SAWYER-GWINN   CLOUDY    52  46  82 S5        29.94F
$$
MIZ001>003-009>011-084-171600-
WESTERN UPPER MICHIGAN

CITY           SKY/WX    TMP DP  RH WIND       PRES   REMARKS
IRON MOUNTAIN  MOSUNNY   59  44  57 W8        29.95S
HOUGHTON       CLOUDY    51  46  83 CALM      29.93R
COPPER HARBOR    N/A     43  39  86 E10G20    29.97R
IRONWOOD       SUNNY     57  46  67 W8        29.93S
$$

ABBREVIATIONS USED IN REMARKS
   TC - TEMPERATURE IN CELSIUS
  WCI - WIND CHILL INDEX
   HX - HEAT INDEX
  VSB - VISIBILITY




USA.gov is the U.S. government's official web portal to all federal, state and local government web resources and services.